Home > Time Zones > World Clock > Weather > U.S.A. > Mesa > Past weeks

Flag for U.S.A. Weather past 2 weeks in Mesa, Arizona, U.S.A.

Now
37 °F

Passing clouds.


Feels Like: 33 °F
Forecast: 41 / 63 °F
Wind: 6 mph from East

Location: Williams Gateway Airport

Current Time: Dec 19, 2014 at 8:21:26 AM

Latest Report: Dec 19, 2014 at 7:47 AM


Visibility: 35 mi

Pressure: 30.23 "Hg

Humidity: 100%

Dew point: 37 °F

Location of MesaLocation

Historic Weather in Mesa — Graph

°F

Mesa temperature yesterday

Maximum temperature yesterday: 63 °F (at 12:47 PM)
Minimum temperature yesterday: 43 °F (at 11:47 PM)
Average temperature yesterday: 49 °F

Past Weeks' High & Low Weather Summary

 TemperatureHumidityPressure
High75 °F (Dec 9, 2:52 PM)100% (Dec 4, 8:47 AM)30.24 "Hg (Dec 4, 8:47 AM)
Low37 °F (Dec 19, 4:15 AM)31% (Dec 12, 11:59 AM)29.95 "Hg (Dec 10, 2:47 PM)
Average53 °F82%30.08 "Hg
* Reported Dec 4 8:47 AM — Dec 19 6:47 AM, Mesa, Weather by CustomWeather, © 2014

Note: Actual official high and low records may vary slightly from our data, if they occured in-between our weather recording intervals... More about our weather records

Advertising

Mesa weather history for previous 24 hours

 ConditionsComfort  
Time TempWeatherWind HumidityBarometerVisibility
6:47 AM
Dec 19
37 °FPassing clouds.No wind93%30.22 "Hg20 mi
5:47 AM37 °FClear.5 mph100%30.21 "Hg20 mi
4:51 AM39 °FClear.3 mph93%30.20 "Hg20 mi
4:35 AM37 °FClear.No wind100%30.20 "Hg10 mi
4:15 AM37 °FClear.3 mph100%30.20 "Hg10 mi
3:55 AM39 °FClear.5 mph93%30.20 "Hg10 mi
3:35 AM39 °FClear.3 mph93%30.20 "Hg10 mi
3:15 AM41 °FClear.7 mph87%30.20 "Hg10 mi
2:55 AM39 °FClear.8 mph93%30.19 "Hg10 mi
2:35 AM41 °FClear.6 mph93%30.19 "Hg10 mi
2:15 AM41 °FClear.5 mph93%30.20 "Hg10 mi
1:55 AM41 °FClear.5 mph93%30.20 "Hg10 mi
1:35 AM41 °FClear.6 mph93%30.19 "Hg10 mi
1:15 AM41 °FClear.6 mph93%30.20 "Hg10 mi
12:55 AM41 °FClear.6 mph100%30.20 "Hg10 mi
12:15 AM41 °FClear.5 mph100%30.21 "Hg10 mi
11:47 PM
Dec 18
43 °FClear.6 mph100%30.21 "Hg20 mi
10:52 PM45 °FClear.6 mph93%30.21 "Hg20 mi
9:52 PM45 °FClear.3 mph93%30.20 "Hg20 mi
8:47 PM46 °FPassing clouds.No wind93%30.18 "Hg20 mi
7:47 PM48 °FPassing clouds.No wind87%30.17 "Hg20 mi
6:47 PM52 °FClear.5 mph77%30.14 "Hg20 mi
5:47 PM54 °FPassing clouds.5 mph72%30.13 "Hg20 mi
4:57 PM55 °FPassing clouds.6 mph63%30.12 "Hg35 mi
3:47 PM57 °FScattered clouds.5 mph59%30.11 "Hg35 mi
2:47 PM59 °FScattered clouds.6 mph55%30.10 "Hg45 mi
12:47 PM63 °FBroken clouds.7 mph52%30.12 "Hg35 mi
11:47 AM55 °FBroken clouds.6 mph72%30.15 "Hg35 mi
10:47 AM54 °FCloudy.5 mph82%30.17 "Hg35 mi
9:47 AM52 °FMostly cloudy.3 mph88%30.16 "Hg20 mi
8:47 AM48 °FPartly sunny.3 mph100%30.14 "Hg20 mi
Weather by CustomWeather, © 2014

See weather overviewHow to use our weather pages